W8CEN Weather Reports


time (UTC)temp
C
wind
direction
speed
KPH
gust
KPH
rain 1hr
cm
rain 24hr
cm
rain mn
cm
humidity
%
barometer
mb
20260504120306 11 251 0.0 1.6 0.00 0.00 0.00 69 986.1
20260504110230 9 240 1.6 3.2 0.00 0.00 0.00 73 985.5
20260504100154 10 206 3.2 3.2 0.00 0.00 0.00 71 985.1
20260504090116 10 283 1.6 1.6 0.00 0.00 0.00 70 985.6
20260504081547 10 288 1.6 3.2 0.00 0.00 0.00 69 986.1
20260504081042 10 236 4.8 4.8 0.00 0.00 0.00 69 986.1
20260504080539 10 300 1.6 3.2 0.00 0.00 0.00 69 986.3
20260504050352 10 254 4.8 4.8 0.00 0.00 0.00 65 988.4
20260504045849 10 275 1.6 1.6 0.00 0.00 0.00 66 988.5
20260504045350 10 308 1.6 1.6 0.00 0.00 0.00 66 988.6
20260504044847 10 314 0.0 0.0 0.00 0.00 0.00 65 988.6
20260504044344 10 21 1.6 1.6 0.00 0.00 0.00 65 988.6
20260504043842 10 261 1.6 1.6 0.00 0.00 0.00 66 988.5
20260504043338 11 349 0.0 1.6 0.00 0.00 0.00 66 988.5
20260504042836 11 334 1.6 1.6 0.00 0.00 0.00 65 988.9
20260504042332 11 235 3.2 4.8 0.00 0.00 0.00 65 988.6
20260504041828 11 331 3.2 4.8 0.00 0.00 0.00 66 989.0
20260504041324 11 288 3.2 3.2 0.00 0.00 0.00 65 988.8
20260504040821 10 356 1.6 1.6 0.00 0.00 0.00 66 988.9
20260504040319 10 289 3.2 3.2 0.00 0.00 0.00 66 988.9
20260504035814 10 294 1.6 1.6 0.00 0.00 0.00 66 988.9
20260504035312 10 45 1.6 1.6 0.00 0.00 0.00 67 989.1
20260504034809 10 203 1.6 3.2 0.00 0.00 0.00 67 988.9
20260504034306 10 11 0.0 1.6 0.00 0.00 0.00 68 989.1
20260504033804 10 270 3.2 4.8 0.00 0.00 0.00 68 989.1
20260504033301 10 321 4.8 4.8 0.00 0.00 0.00 68 989.1
20260504032758 10 243 1.6 4.8 0.00 0.00 0.00 68 989.2
20260504032255 10 266 1.6 1.6 0.00 0.00 0.00 69 989.3
20260504031751 10 251 1.6 3.2 0.00 0.00 0.00 70 989.2
20260504031249 10 273 0.0 3.2 0.00 0.00 0.00 71 989.3
20260504030744 10 184 0.0 0.0 0.00 0.00 0.00 71 989.5
20260504030242 10 239 1.6 1.6 0.00 0.00 0.00 71 989.8
20260504025738 10 161 0.0 1.6 0.00 0.00 0.00 71 989.6
20260504025235 10 71 0.0 0.0 0.00 0.00 0.00 71 989.7
20260504024732 10 165 0.0 0.0 0.00 0.00 0.00 70 989.6
20260504024229 10 15 0.0 0.0 0.00 0.00 0.00 70 989.8
20260504023726 10 266 1.6 1.6 0.00 0.00 0.00 69 989.8
20260504023221 10 250 1.6 1.6 0.00 0.00 0.00 69 989.7
20260504022718 10 62 0.0 0.0 0.00 0.00 0.00 68 989.9
20260504022214 10 249 1.6 1.6 0.00 0.00 0.00 68 990.0
20260504021712 10 267 1.6 1.6 0.00 0.00 0.00 68 989.8
20260504021209 10 271 1.6 3.2 0.00 0.00 0.00 67 989.9
20260504020706 11 336 1.6 3.2 0.00 0.00 0.00 67 989.8
20260504020201 11 252 1.6 3.2 0.00 0.00 0.00 66 989.9
20260504015658 11 22 0.0 0.0 0.00 0.00 0.00 66 989.8
20260504015154 11 155 1.6 1.6 0.00 0.00 0.00 66 990.1
20260504014650 11 9 0.0 1.6 0.00 0.00 0.00 66 989.9
20260504014148 11 297 3.2 3.2 0.00 0.00 0.00 65 989.9
20260504013645 11 26 0.0 0.0 0.00 0.00 0.00 66 990.0
20260504013142 11 247 1.6 1.6 0.00 0.00 0.00 66 989.9
20260504012639 11 300 1.6 3.2 0.00 0.00 0.00 65 990.0
20260504012137 11 259 0.0 1.6 0.00 0.00 0.00 63 990.1
20260504011634 11 25 0.0 1.6 0.00 0.00 0.00 64 989.9
20260504011130 11 238 4.8 4.8 0.00 0.00 0.00 62 990.0
20260504010626 11 281 3.2 3.2 0.00 0.00 0.00 62 989.8
20260504010122 11 248 4.8 6.4 0.00 0.00 0.00 62 990.0
20260504005619 11 229 4.8 4.8 0.00 0.00 0.00 61 990.0
20260504005116 11 247 1.6 3.2 0.00 0.00 0.00 62 990.2
20260504004614 11 235 3.2 3.2 0.00 0.00 0.00 62 990.1
20260504004111 11 242 4.8 4.8 0.00 0.00 0.00 62 990.1
20260504003607 11 240 4.8 4.8 0.00 0.00 0.00 62 990.2
20260504003104 11 261 3.2 3.2 0.00 0.00 0.00 61 990.1
20260504002601 11 249 3.2 4.8 0.00 0.00 0.00 60 990.2
20260504002058 12 265 6.4 9.7 0.00 0.00 0.00 59 990.6
20260504001556 12 232 4.8 9.7 0.00 0.00 0.00 61 990.6
20260504001051 12 245 6.4 9.7 0.00 0.00 0.00 61 990.4
20260504000549 12 260 6.4 9.7 0.00 0.00 0.00 61 990.5
20260504000046 12 262 11.3 14.5 0.00 0.00 0.00 60 990.3
20260503235545 12 288 6.4 6.4 0.00 0.00 0.00 61 990.1
20260503235041 12 252 6.4 6.4 0.00 0.00 0.00 61 990.3
20260503234538 12 249 8.0 9.7 0.00 0.00 0.00 60 990.4
20260503234037 12 266 9.7 12.9 0.00 0.00 0.00 59 990.2
20260503233533 13 233 8.0 11.3 0.00 0.00 0.00 58 990.1
20260503233029 13 264 8.0 11.3 0.00 0.00 0.00 57 990.2
20260503232526 13 240 14.5 16.1 0.00 0.00 0.00 56 990.1
20260503232024 14 273 9.7 11.3 0.00 0.00 0.00 54 989.9
20260503231521 14 239 9.7 12.9 0.00 0.00 0.00 52 989.9
20260503231018 15 215 9.7 14.5 0.00 0.00 0.00 51 989.9
20260503230514 15 262 11.3 12.9 0.00 0.00 0.00 49 989.7
20260503230012 16 238 11.3 16.1 0.00 0.00 0.00 42 989.8
20260503225509 16 291 4.8 6.4 0.00 0.00 0.00 38 989.7
20260503225004 16 244 6.4 9.7 0.00 0.00 0.00 36 989.7
20260503224501 16 256 6.4 6.4 0.00 0.00 0.00 35 989.9
20260503223959 16 334 6.4 9.7 0.00 0.00 0.00 36 989.8
20260503223457 16 228 8.0 11.3 0.00 0.00 0.00 37 989.8
20260503222952 16 226 6.4 9.7 0.00 0.00 0.00 37 989.9
20260503222451 16 225 6.4 6.4 0.00 0.00 0.00 35 989.7
20260503221949 16 247 8.0 9.7 0.00 0.00 0.00 36 989.8
20260503221447 16 251 4.8 4.8 0.00 0.00 0.00 37 989.9
20260503220943 16 247 8.0 9.7 0.00 0.00 0.00 36 989.8
20260503220439 16 296 6.4 11.3 0.00 0.00 0.00 36 989.9
20260503215937 17 246 9.7 14.5 0.00 0.00 0.00 35 990.0
20260503215433 17 239 9.7 11.3 0.00 0.00 0.00 35 989.8
20260503214931 17 255 9.7 11.3 0.00 0.00 0.00 34 989.9
20260503214429 17 225 8.0 11.3 0.00 0.00 0.00 34 990.1
20260503213926 17 304 12.9 16.1 0.00 0.00 0.00 35 990.0
20260503213424 17 256 9.7 11.3 0.00 0.00 0.00 33 990.1
20260503212920 17 246 12.9 20.9 0.00 0.00 0.00 32 990.1
20260503212418 17 269 6.4 9.7 0.00 0.00 0.00 35 990.0
20260503211915 17 321 4.8 9.7 0.00 0.00 0.00 35 990.1
20260503211412 17 249 8.0 11.3 0.00 0.00 0.00 34 990.1
20260503210907 17 233 9.7 12.9 0.00 0.00 0.00 34 990.0
20260503210404 17 303 6.4 11.3 0.00 0.00 0.00 33 990.0
20260503205859 17 208 14.5 16.1 0.00 0.00 0.00 32 990.0
20260503205356 17 248 6.4 11.3 0.00 0.00 0.00 32 990.3
20260503204852 17 237 9.7 14.5 0.00 0.00 0.00 32 990.2
20260503204349 17 240 9.7 12.9 0.00 0.00 0.00 32 990.2
20260503203847 17 293 6.4 11.3 0.00 0.00 0.00 33 990.3
20260503203344 17 228 12.9 16.1 0.00 0.00 0.00 32 990.4
20260503202841 17 245 16.1 20.9 0.00 0.00 0.00 32 990.3
20260503202339 17 245 9.7 12.9 0.00 0.00 0.00 33 990.3
20260503201837 17 251 6.4 9.7 0.00 0.00 0.00 33 990.6
20260503201334 17 259 8.0 11.3 0.00 0.00 0.00 32 990.5
20260503200832 17 236 12.9 14.5 0.00 0.00 0.00 32 990.6
20260503200327 17 242 12.9 12.9 0.00 0.00 0.00 32 990.6
20260503195825 17 236 9.7 14.5 0.00 0.00 0.00 33 990.5
20260503195321 17 259 11.3 16.1 0.00 0.00 0.00 33 990.6
20260503194819 17 259 9.7 12.9 0.00 0.00 0.00 32 990.7
20260503194314 18 232 9.7 11.3 0.00 0.00 0.00 33 990.9
20260503193810 17 252 12.9 16.1 0.00 0.00 0.00 33 990.7
20260503193307 17 249 8.0 11.3 0.00 0.00 0.00 33 990.8
20260503192803 17 277 12.9 17.7 0.00 0.00 0.00 33 991.2
20260503192258 17 243 11.3 16.1 0.00 0.00 0.00 34 990.7
20260503191755 17 233 6.4 11.3 0.00 0.00 0.00 33 991.3
20260503191252 17 232 12.9 16.1 0.00 0.00 0.00 32 991.2
20260503190748 17 319 6.4 9.7 0.00 0.00 0.00 35 991.4
20260503190245 17 281 6.4 6.4 0.00 0.00 0.00 33 991.2
20260503185743 17 249 12.9 16.1 0.00 0.00 0.00 33 991.5
20260503185238 17 253 9.7 12.9 0.00 0.00 0.00 32 991.4
20260503184733 17 227 9.7 16.1 0.00 0.00 0.00 34 991.6
20260503184230 17 243 9.7 11.3 0.00 0.00 0.00 33 991.6
20260503183726 17 252 11.3 14.5 0.00 0.00 0.00 34 991.6
20260503183223 17 235 12.9 14.5 0.00 0.00 0.00 35 991.9
20260503182721 17 248 9.7 14.5 0.00 0.00 0.00 36 991.7
20260503182220 17 254 8.0 11.3 0.00 0.00 0.00 34 991.9
20260503181716 17 235 9.7 12.9 0.00 0.00 0.00 33 992.0
20260503181213 17 250 6.4 9.7 0.00 0.00 0.00 35 992.0
20260503180709 17 257 12.9 14.5 0.00 0.00 0.00 33 992.1
20260503180208 17 258 6.4 9.7 0.00 0.00 0.00 32 992.2
20260503175704 17 271 6.4 9.7 0.00 0.00 0.00 36 992.3
20260503175202 17 180 9.7 12.9 0.00 0.00 0.00 33 992.3
20260503174657 17 267 12.9 16.1 0.00 0.00 0.00 33 992.3
20260503174155 17 250 9.7 14.5 0.00 0.00 0.00 35 992.4
20260503173650 17 232 9.7 11.3 0.00 0.00 0.00 35 992.3
20260503173147 16 249 8.0 12.9 0.00 0.00 0.00 37 992.4
20260503172644 17 238 9.7 16.1 0.00 0.00 0.00 35 992.5
20260503172141 16 269 8.0 9.7 0.00 0.00 0.00 37 992.7
20260503171637 17 248 14.5 20.9 0.00 0.00 0.00 35 992.6
20260503171135 17 259 8.0 11.3 0.00 0.00 0.00 38 992.9
20260503170632 17 242 8.0 11.3 0.00 0.00 0.00 36 992.9
20260503170128 17 246 6.4 6.4 0.00 0.00 0.00 41 993.1
20260503150520 13 253 6.4 6.4 0.00 0.00 0.00 47 994.4
20260503131413 10 243 6.4 9.7 0.00 0.00 0.00 52 994.2
20260503130910 10 235 4.8 11.3 0.00 0.00 0.00 53 994.5
20260503130408 9 237 6.4 6.4 0.00 0.00 0.00 53 994.5